Home   Weather   Medellin   Past weeks

Flag for Colombia Past Weather in Medellin, Colombia — Yesterday and Last 2 Weeks

Now
55 °F

Passing clouds.


Feels Like: 55 °F
Forecast: 59 / 73 °F
Wind: 3 mph from West

Location: Rionegro / J. M. Cordova

Current Time: Dec 9, 2016 at 2:39:48 am

Latest Report: Dec 9, 2016 at 2:00 am


Visibility: N/A

Pressure: 30.29 "Hg (25.39 "Hg at 1479m altitude)

Humidity: 94%

Dew Point: 54 °F

Location of MedellinLocation

Past Weather in Medellin — Graph

°F

Medellin Temperature Yesterday

Maximum temperature yesterday: 70 °F (at 1:00 pm)
Minimum temperature yesterday: 55 °F (at 10:00 pm)
Average temperature yesterday: 61 °F

High & Low Weather Summary for the Past Weeks

 TemperatureHumidityPressure
High72 °F (Nov 24, 2:00 pm)100% (Nov 24, 5:00 am)30.36 "Hg (Nov 24, 5:00 am)
Low54 °F (Nov 26, 6:00 am)50% (Dec 4, 2:00 pm)30.15 "Hg (Nov 28, 3:00 pm)
Average62 °F87%30.26 "Hg
* Reported Nov 24 1:00 am — Dec 9 1:00 am, Medellin, Weather by CustomWeather, © 2016

Note: Actual official high and low records may vary slightly from our data, if they occured in-between our weather recording intervals... More about our weather records

Advertising

Medellin Weather History for the Previous 24 Hours

Scroll right to see more
 ConditionsComfort  
Time TempWeatherWind HumidityBarometerVisibility
1:00 am
Fri, Dec 9
55 °FPassing clouds.No wind94%30.31 "HgN/A
12:00 am54 °FPassing clouds.No wind94%30.33 "HgN/A
11:00 pm
Thu, Dec 8
55 °FPassing clouds.5 mph94%30.32 "HgN/A
10:00 pm55 °FPassing clouds.5 mph94%30.33 "HgN/A
9:00 pm57 °FPassing clouds.No wind94%30.31 "HgN/A
8:00 pm57 °FPassing clouds.3 mph94%30.27 "HgN/A
7:00 pm59 °FPassing clouds.5 mph88%30.25 "HgN/A
6:00 pm63 °FPassing clouds.12 mph77%30.22 "HgN/A
5:00 pm64 °FScattered clouds.9 mph78%30.20 "HgN/A
4:00 pm64 °FPartly sunny.15 mph78%30.21 "HgN/A
3:00 pm68 °FScattered showers. Scattered clouds.20 mph69%30.21 "HgN/A
2:00 pm70 °FScattered showers. Scattered clouds.14 mph64%30.22 "HgN/A
1:00 pm70 °FScattered showers. Partly sunny.10 mph60%30.25 "HgN/A
12:00 pm68 °FPartly sunny.6 mph69%30.29 "HgN/A
11:00 am66 °FScattered clouds.5 mph68%30.31 "HgN/A
10:00 am64 °FPartly sunny.5 mph68%30.33 "HgN/A
9:00 am61 °FScattered clouds.3 mph83%30.34 "Hg5 mi
8:00 am59 °FBroken clouds.3 mph94%30.33 "Hg2 mi
7:00 am59 °FRain. Partly sunny.3 mph88%30.31 "HgN/A
6:00 am57 °FPartly sunny.2 mph94%30.27 "HgN/A
5:00 am57 °FPassing clouds.No wind100%30.26 "HgN/A
4:00 am57 °FPassing clouds.3 mph94%30.25 "HgN/A
3:00 am57 °FPassing clouds.5 mph100%30.26 "HgN/A
2:00 am59 °FPartly cloudy.3 mph94%30.28 "HgN/A
Weather by CustomWeather, © 2016

See weather overviewHow to use our weather pages